Time,TemperatureF,DewpointF,PressureIn,WindDirection,WindDirectionDegrees,WindSpeedMPH,WindSpeedGustMPH,Humidity,HourlyPrecipIn,Conditions,Clouds,dailyrainin,SoftwareType,DateUTC
2013-07-19 01:11:00,70.0,47.0,-100.00,North,-999,0.0,0.0,43,-99.99,,,-99.99,,2013-07-19 08:11:00,
2013-07-19 02:10:00,69.0,47.0,-100.00,ENE,70,2.0,3.0,45,-99.99,,,-99.99,,2013-07-19 09:10:00,
2013-07-19 03:01:00,69.0,47.0,-100.00,ENE,70,2.0,3.0,45,-99.99,,,-99.99,,2013-07-19 10:01:00,
2013-07-19 04:10:00,64.0,49.0,-100.00,SSE,150,8.0,10.0,58,-99.99,,,-99.99,,2013-07-19 11:10:00,
2013-07-19 04:12:00,66.0,48.0,-100.00,South,170,0.0,3.0,52,-99.99,,,-99.99,,2013-07-19 11:12:00,
2013-07-19 06:11:00,64.0,50.0,-100.00,SSE,160,5.0,7.0,60,-99.99,,,-99.99,,2013-07-19 13:11:00,
2013-07-19 07:10:00,67.0,52.0,-100.00,SSE,150,5.0,7.0,58,-99.99,,,-99.99,,2013-07-19 14:10:00,
2013-07-19 09:01:00,71.0,51.0,-100.00,SSE,165,6.0,9.0,49,-99.99,,,-99.99,,2013-07-19 16:01:00,
2013-07-19 09:11:00,71.0,51.0,-100.00,SSE,165,6.0,9.0,49,-99.99,,,-99.99,,2013-07-19 16:11:00,
2013-07-19 10:10:00,79.0,50.0,-100.00,North,10,0.0,6.0,36,-99.99,,,-99.99,,2013-07-19 17:10:00,
2013-07-19 12:10:00,86.0,47.0,-100.00,ESE,110,1.0,7.0,25,-99.99,,,-99.99,,2013-07-19 19:10:00,
2013-07-19 14:01:00,87.0,42.0,-100.00,NNE,20,2.0,15.0,20,-99.99,,,-99.99,,2013-07-19 21:01:00,
2013-07-19 14:11:00,87.0,42.0,-100.00,NNE,20,2.0,15.0,20,-99.99,,,-99.99,,2013-07-19 21:11:00,
2013-07-19 15:10:00,90.0,31.0,-100.00,WNW,295,2.0,6.0,12,-99.99,,,-99.99,,2013-07-19 22:10:00,
2013-07-19 17:01:00,91.0,24.0,-100.00,SE,135,9.0,15.0,8,-99.99,,,-99.99,,2013-07-20 00:01:00,
2013-07-19 17:11:00,91.0,24.0,-100.00,SE,135,9.0,15.0,8,-99.99,,,-99.99,,2013-07-20 00:11:00,
2013-07-19 18:10:00,90.0,30.0,-100.00,ESE,110,2.0,10.0,11,-99.99,,,-99.99,,2013-07-20 01:10:00,
2013-07-19 19:20:00,89.0,33.0,-100.00,South,175,0.0,1.0,13,-99.99,,,-99.99,,2013-07-20 02:20:00,
2013-07-19 20:10:00,87.0,32.0,-100.00,North,-999,0.0,0.0,13,-99.99,,,-99.99,,2013-07-20 03:10:00,
2013-07-19 20:11:00,89.0,33.0,-100.00,South,175,0.0,1.0,13,-99.99,,,-99.99,,2013-07-20 03:11:00,
2013-07-19 21:02:00,87.0,32.0,-100.00,North,-999,0.0,0.0,13,-99.99,,,-99.99,,2013-07-20 04:02:00,
2013-07-19 22:11:00,80.0,34.0,-100.00,North,5,5.0,9.0,18,-99.99,,,-99.99,,2013-07-20 05:11:00,
2013-07-19 23:10:00,69.0,42.0,-100.00,ESE,105,3.0,5.0,37,-99.99,,,-99.99,,2013-07-20 06:10:00,